This is the latest recevied weather packets stored in our database for station/object KC9DK. If no packets are shown the sender has not sent any weather packets the latest 1 day(s).
| Time | Temp. | Humidity | Pressure | Rain* | Wind** | Luminosity | Snow |
|---|---|---|---|---|---|---|---|
| 1836274622 | 20° C | 77% | 1018.1 hPa | 0 mm | 0 m/s | 0 W/m² | - |
| 1836274476 | 19.44° C | 78% | 1017.9 hPa | 0 mm | 0 m/s | 0 W/m² | - |
| 1836274320 | 20° C | 77% | 1018.1 hPa | 0 mm | 0 m/s | 0 W/m² | - |
| 1836274174 | 19.44° C | 77% | 1018.2 hPa | 0 mm | 0 m/s | 0 W/m² | - |
| 1836274019 | 20° C | 77% | 1018.2 hPa | 0 mm | 0 m/s | 0 W/m² | - |
| 1778040174 | 9.44° C | 97% | 1009.6 hPa | 0 mm | 0.89 m/s, 278° | 0 W/m² | - |
| 1778039870 | 9.44° C | 97% | 1009.6 hPa | 0 mm | 1.79 m/s, 357° | 0 W/m² | - |
| 1778039567 | 9.44° C | 97% | 1009.9 hPa | 1.78 mm | 1.79 m/s, 18° | 0 W/m² | - |
| 1778039264 | 9.44° C | 97% | 1009.9 hPa | 3.05 mm | 2.24 m/s, 328° | 0 W/m² | - |
| 1778038962 | 9.44° C | 97% | 1009.6 hPa | 1.27 mm | 1.79 m/s, 13° | 0 W/m² | - |
| 1778038659 | 9.44° C | 97% | 1009.7 hPa | 0 mm | 2.24 m/s, 13° | 0 W/m² | - |
| 1778038356 | 9.44° C | 97% | 1009.8 hPa | 0 mm | 1.34 m/s, 85° | 0 W/m² | - |
| 1778038052 | 9.44° C | 97% | 1009.9 hPa | 0 mm | 0.89 m/s, 338° | 0 W/m² | - |
| 1778037750 | 9.44° C | 97% | 1009.7 hPa | 0 mm | 0.45 m/s, 168° | 0 W/m² | - |
| 1778037446 | 9.44° C | 97% | 1009.9 hPa | 0 mm | 0.45 m/s, 198° | 0 W/m² | - |
| 1778037144 | 9.44° C | 97% | 1009 hPa | 1.78 mm | 2.68 m/s, 244° | 0 W/m² | - |
| 1778036842 | 9.44° C | 97% | 1008.8 hPa | 1.78 mm | 3.13 m/s, 324° | 0 W/m² | - |
| 1778036539 | 9.44° C | 97% | 1009.2 hPa | 0 mm | 2.68 m/s, 337° | 0 W/m² | - |
| 1778036236 | 9.44° C | 97% | 1008.8 hPa | 1.27 mm | 2.68 m/s, 352° | 0 W/m² | - |
| 1778035932 | 9.44° C | 97% | 1009 hPa | 1.27 mm | 3.13 m/s, 19° | 0 W/m² | - |
| 1778035629 | 10° C | 97% | 1009 hPa | 1.78 mm | 2.24 m/s, 16° | 0 W/m² | - |
| 1778035325 | 10° C | 97% | 1009.1 hPa | 1.78 mm | 0.45 m/s, 196° | 0 W/m² | - |
| 1778035022 | 10° C | 97% | 1009.3 hPa | 0 mm | 1.34 m/s, 78° | 0 W/m² | - |
| 1778034719 | 10° C | 97% | 1009.3 hPa | 1.27 mm | 1.34 m/s, 298° | 0 W/m² | - |
| 1778034416 | 10° C | 97% | 1009.7 hPa | 4.32 mm | 2.68 m/s, 295° | 0 W/m² | - |
* Rain latest hour (hover to see other rain measurements)
** Current wind speed in m/s (hover to see current wind gust speed)